• In France
  • List of Countries
  • For 7 days
  • Water Temperature
  • Satellite Maps
  • Weather Map
  • Weather Widgets
  • user-avatar
    Login

    Hourly Weather Ibagué

    Today, 14 December, Thursday

    Time Temperature Precipitation Wind Pressure Humidity
    00:00 +19°C° 0 mm 1 mps 648 mmHg 85%
    01:00 +19°C° 0 mm 1 mps 648 mmHg 86%
    02:00 +19°C° 0 mm 1 mps 648 mmHg 87%
    03:00 +18°C° 0 mm 1 mps 648 mmHg 88%
    04:00 +18°C° 0 mm 1 mps 648 mmHg 89%
    05:00 +19°C° 0 mm 1 mps 648 mmHg 87%
    06:00 +19°C° 0 mm 1 mps 649 mmHg 84%
    07:00 +19°C° 0 mm 1 mps 649 mmHg 82%
    08:00 +21°C° 0 mm 1 mps 650 mmHg 72%
    09:00 +23°C° 0 mm 1 mps 650 mmHg 62%
    10:00 +25°C° 0 mm 2 mps 651 mmHg 52%
    11:00 +26°C° 0 mm 2 mps 650 mmHg 50%
    12:00 +27°C° 0 mm 2 mps 650 mmHg 49%
    13:00 +27°C° 0 mm 2 mps 649 mmHg 47%
    14:00 +27°C° 0 mm 2 mps 649 mmHg 47%
    15:00 +27°C° 0 mm 2 mps 648 mmHg 47%
    16:00 +27°C° 0 mm 1 mps 648 mmHg 46%
    17:00 +25°C° 0 mm 1 mps 648 mmHg 54%
    18:00 +23°C° 0 mm 1 mps 648 mmHg 62%
    19:00 +20°C° 0 mm 1 mps 647 mmHg 70%
    20:00 +20°C° 0 mm 1 mps 648 mmHg 67%
    21:00 +20°C° 0 mm 1 mps 648 mmHg 65%
    22:00 +19°C° 0 mm 1 mps 649 mmHg 62%
    23:00 +19°C° 0 mm 1 mps 649 mmHg 59%

    Tomorrow, 15 December, Friday

    Time Temperature Precipitation Wind Pressure Humidity
    00:00 +19°C° 0 mm 1 mps 648 mmHg 55%
    01:00 +18°C° 0 mm 1 mps 648 mmHg 51%
    02:00 +18°C° 0 mm 1 mps 648 mmHg 51%
    03:00 +18°C° 0 mm 1 mps 648 mmHg 50%
    04:00 +18°C° 0 mm 1 mps 648 mmHg 50%
    05:00 +18°C° 0 mm 1 mps 648 mmHg 50%
    06:00 +19°C° 0 mm 1 mps 649 mmHg 50%
    07:00 +19°C° 0 mm 1 mps 649 mmHg 51%
    08:00 +22°C° 0 mm 1 mps 650 mmHg 46%
    09:00 +24°C° 0 mm 2 mps 650 mmHg 41%
    10:00 +27°C° 0 mm 2 mps 651 mmHg 37%
    11:00 +28°C° 0 mm 2 mps 650 mmHg 36%
    12:00 +29°C° 0 mm 2 mps 650 mmHg 34%
    13:00 +30°C° 0 mm 2 mps 649 mmHg 33%
    14:00 +30°C° 0 mm 2 mps 649 mmHg 35%
    15:00 +29°C° 0 mm 2 mps 648 mmHg 36%
    16:00 +29°C° 0 mm 1 mps 648 mmHg 37%
    17:00 +26°C° 0 mm 1 mps 648 mmHg 45%
    18:00 +24°C° 0 mm 1 mps 648 mmHg 52%
    19:00 +21°C° 0 mm 1 mps 647 mmHg 60%
    20:00 +21°C° 0 mm 1 mps 648 mmHg 59%
    21:00 +20°C° 0 mm 1 mps 648 mmHg 58%
    22:00 +20°C° 0 mm 1 mps 649 mmHg 58%
    23:00 +20°C° 0 mm 1 mps 649 mmHg 56%

    Day after tomorrow, 16 December, Saturday

    Time Temperature Precipitation Wind Pressure Humidity
    00:00 +19°C° 0 mm 1 mps 648 mmHg 55%
    01:00 +19°C° 0 mm 1 mps 648 mmHg 53%
    02:00 +19°C° 0 mm 1 mps 648 mmHg 53%
    03:00 +19°C° 0 mm 1 mps 648 mmHg 52%
    04:00 +18°C° 0 mm 1 mps 647 mmHg 52%
    05:00 +19°C° 0 mm 1 mps 648 mmHg 52%
    06:00 +19°C° 0 mm 1 mps 648 mmHg 52%
    07:00 +20°C° 0 mm 1 mps 649 mmHg 52%
    08:00 +22°C° 0 mm 1 mps 650 mmHg 48%
    09:00 +25°C° 0 mm 1 mps 650 mmHg 43%
    10:00 +27°C° 0 mm 1 mps 651 mmHg 39%
    11:00 +28°C° 0 mm 1 mps 651 mmHg 38%
    12:00 +29°C° 0 mm 1 mps 650 mmHg 37%
    13:00 +30°C° 0 mm 2 mps 650 mmHg 35%
    14:00 +29°C° 0 mm 1 mps 649 mmHg 37%
    15:00 +29°C° 0 mm 1 mps 648 mmHg 39%
    16:00 +28°C° 0 mm 1 mps 648 mmHg 41%
    17:00 +26°C° 0 mm 1 mps 647 mmHg 49%
    18:00 +23°C° 0 mm 1 mps 647 mmHg 56%
    19:00 +21°C° 0 mm 1 mps 647 mmHg 64%
    20:00 +21°C° 0 mm 1 mps 647 mmHg 63%
    21:00 +20°C° 0 mm 1 mps 648 mmHg 63%
    22:00 +20°C° 0 mm 1 mps 648 mmHg 63%
    23:00 +19°C° 0 mm 1 mps 648 mmHg 61%

    17 December, Sunday

    Time Temperature Precipitation Wind Pressure Humidity
    00:00 +19°C° 0 mm 1 mps 648 mmHg 60%
    01:00 +19°C° 0 mm 1 mps 647 mmHg 58%
    02:00 +18°C° 0 mm 1 mps 647 mmHg 57%
    03:00 +18°C° 0 mm 1 mps 647 mmHg 56%
    04:00 +18°C° 0 mm 1 mps 647 mmHg 55%
    05:00 +18°C° 0 mm 1 mps 647 mmHg 53%
    06:00 +19°C° 0 mm 1 mps 648 mmHg 52%
    07:00 +19°C° 0 mm 1 mps 649 mmHg 51%
    08:00 +22°C° 0 mm 1 mps 649 mmHg 46%
    09:00 +24°C° 0 mm 1 mps 650 mmHg 41%
    10:00 +27°C° 0 mm 1 mps 651 mmHg 36%
    11:00 +28°C° 0 mm 2 mps 650 mmHg 35%
    12:00 +29°C° 0 mm 2 mps 650 mmHg 33%
    13:00 +30°C° 0 mm 2 mps 649 mmHg 32%
    14:00 +30°C° 0 mm 2 mps 648 mmHg 33%
    15:00 +29°C° 0 mm 1 mps 648 mmHg 34%
    16:00 +29°C° 0 mm 1 mps 647 mmHg 35%
    17:00 +26°C° 0 mm 1 mps 647 mmHg 41%
    18:00 +23°C° 0 mm 1 mps 647 mmHg 48%
    19:00 +20°C° 0 mm 2 mps 647 mmHg 54%
    20:00 +19°C° 0 mm 2 mps 647 mmHg 49%
    21:00 +19°C° 0 mm 2 mps 648 mmHg 43%
    22:00 +19°C° 0 mm 2 mps 648 mmHg 38%
    23:00 +18°C° 0 mm 2 mps 648 mmHg 35%

    18 December, Monday

    Time Temperature Precipitation Wind Pressure Humidity
    00:00 +18°C° 0 mm 2 mps 648 mmHg 33%
    01:00 +17°C° 0 mm 2 mps 647 mmHg 31%
    02:00 +17°C° 0 mm 2 mps 647 mmHg 32%
    03:00 +18°C° 0 mm 1 mps 647 mmHg 32%
    04:00 +16°C° 0 mm 1 mps 647 mmHg 33%
    05:00 +18°C° 0 mm 1 mps 647 mmHg 35%
    06:00 +18°C° 0 mm 1 mps 648 mmHg 36%
    07:00 +19°C° 0 mm 1 mps 649 mmHg 38%
    08:00 +21°C° 0 mm 1 mps 649 mmHg 35%
    09:00 +24°C° 0 mm 2 mps 650 mmHg 31%
    10:00 +27°C° 0 mm 2 mps 650 mmHg 28%
    11:00 +28°C° 0 mm 2 mps 650 mmHg 25%
    12:00 +29°C° 0 mm 2 mps 649 mmHg 23%
    13:00 +30°C° 0 mm 2 mps 649 mmHg 21%
    14:00 +30°C° 0 mm 2 mps 649 mmHg 21%
    15:00 +30°C° 0 mm 1 mps 648 mmHg 22%
    16:00 +29°C° 0 mm 1 mps 647 mmHg 22%
    17:00 +26°C° 0 mm 1 mps 647 mmHg 27%
    18:00 +23°C° 0 mm 2 mps 647 mmHg 31%
    19:00 +19°C° 0 mm 2 mps 647 mmHg 36%
    20:00 +19°C° 0 mm 2 mps 648 mmHg 33%
    21:00 +19°C° 0 mm 2 mps 648 mmHg 31%
    22:00 +18°C° 0 mm 2 mps 649 mmHg 29%
    23:00 +18°C° 0 mm 2 mps 648 mmHg 27%

    19 December, Tuesday

    Time Temperature Precipitation Wind Pressure Humidity
    00:00 +17°C° 0 mm 2 mps 648 mmHg 25%
    01:00 +17°C° 0 mm 2 mps 648 mmHg 23%
    02:00 +16°C° 0 mm 2 mps 648 mmHg 24%
    03:00 +16°C° 0 mm 1 mps 647 mmHg 25%
    04:00 +15°C° 0 mm 1 mps 647 mmHg 25%
    05:00 +16°C° 0 mm 1 mps 648 mmHg 27%
    06:00 +18°C° 0 mm 1 mps 648 mmHg 30%
    07:00 +18°C° 0 mm 1 mps 649 mmHg 32%
    08:00 +21°C° 0 mm 1 mps 650 mmHg 30%
    09:00 +24°C° 0 mm 1 mps 650 mmHg 27%
    10:00 +27°C° 0 mm 2 mps 651 mmHg 25%
    11:00 +28°C° 0 mm 2 mps 650 mmHg 24%
    12:00 +30°C° 0 mm 2 mps 650 mmHg 24%
    13:00 +31°C° 0 mm 2 mps 649 mmHg 23%
    14:00 +30°C° 0 mm 2 mps 649 mmHg 24%
    15:00 +30°C° 0 mm 1 mps 648 mmHg 25%
    16:00 +29°C° 0 mm 1 mps 648 mmHg 26%
    17:00 +27°C° 0 mm 1 mps 648 mmHg 33%
    18:00 +24°C° 0 mm 2 mps 648 mmHg 39%
    19:00 +20°C° 0 mm 2 mps 648 mmHg 45%
    20:00 +19°C° 0 mm 2 mps 648 mmHg 44%
    21:00 +19°C° 0 mm 2 mps 649 mmHg 42%
    22:00 +18°C° 0 mm 2 mps 649 mmHg 41%
    23:00 +18°C° 0 mm 2 mps 649 mmHg 39%
    Show more